This is the latest recevied weather packets stored in our database for station/object WP3XM. If no packets are shown the sender has not sent any weather packets the latest 10 day(s).
| Time | Temp. | Humidity | Pressure | Rain* | Wind** | Luminosity | Snow |
|---|---|---|---|---|---|---|---|
| 1778081067 | 30° C | 66% | 1020.5 hPa | 0 mm | - | 1024 W/m² | - |
| 1778080766 | 29.44° C | 68% | 1020.5 hPa | 0 mm | - | 1090 W/m² | - |
| 1778080463 | 29.44° C | 68% | 1020.4 hPa | 0 mm | - | 1023 W/m² | - |
| 1778080160 | 29.44° C | 67% | 1020.5 hPa | 0 mm | - | 1031 W/m² | - |
| 1778079856 | 30° C | 67% | 1020.5 hPa | 0 mm | - | 308 W/m² | - |
| 1778079553 | 30° C | 66% | 1020.4 hPa | 0 mm | - | 808 W/m² | - |
| 1778079249 | 30° C | 67% | 1020.4 hPa | 0 mm | - | 985 W/m² | - |
| 1778078947 | 29.44° C | 68% | 1020.4 hPa | 0 mm | - | 965 W/m² | - |
| 1778078643 | 29.44° C | 69% | 1020.4 hPa | 0 mm | - | 971 W/m² | - |
| 1778078342 | 29.44° C | 69% | 1020.3 hPa | 0 mm | - | 952 W/m² | - |
| 1778078038 | 29.44° C | 69% | 1020.5 hPa | 0 mm | - | 939 W/m² | - |
| 1778077737 | 29.44° C | 71% | 1020.5 hPa | 0 mm | - | 997 W/m² | - |
| 1778077434 | 28.89° C | 70% | 1020.6 hPa | 0 mm | - | 937 W/m² | - |
| 1778077132 | 29.44° C | 71% | 1020.5 hPa | 0 mm | - | 975 W/m² | - |
| 1778076830 | 28.89° C | 71% | 1020.5 hPa | 0 mm | - | 296 W/m² | - |
| 1778076528 | 28.89° C | 72% | 1020.6 hPa | 0 mm | - | 894 W/m² | - |
| 1778076224 | 28.89° C | 71% | 1020.3 hPa | 0 mm | - | 866 W/m² | - |
| 1778075922 | 28.89° C | 73% | 1020.5 hPa | 0 mm | - | 865 W/m² | - |
| 1778075618 | 28.33° C | 75% | 1020.3 hPa | 0 mm | - | 879 W/m² | - |
| 1778075314 | 28.89° C | 75% | 1020.4 hPa | 0 mm | - | 759 W/m² | - |
| 1778075011 | 28.33° C | 77% | 1020.2 hPa | 0 mm | - | 891 W/m² | - |
| 1778074708 | 28.33° C | 76% | 1020.4 hPa | 0 mm | - | 194 W/m² | - |
| 1778074405 | 27.78° C | 77% | 1020.4 hPa | 0 mm | - | 853 W/m² | - |
| 1778074102 | 28.33° C | 76% | 1020.4 hPa | 0 mm | - | 287 W/m² | - |
| 1778073799 | 27.78° C | 80% | 1020.4 hPa | 0 mm | - | 857 W/m² | - |
* Rain latest hour (hover to see other rain measurements)
** Current wind speed in m/s (hover to see current wind gust speed)